Albion, NE

10:33 AM CST on December 15, 2019 (GMT -0600)
Albion Municipal

Weather History for KBVN - November, 2019

Change the Weather History Date:

Tuesday, November 19, 2019

  Actual Average (WUND) Record (WUND)
Temperature  
Mean Temperature 43 °F -  
Max Temperature 61 °F - - (-1)
Min Temperature 25 °F - - (-1)
Degree Days  
Heating Degree Days 22    
Moisture  
Dew Point 32 °F    
Average Humidity 71    
Maximum Humidity 96    
Minimum Humidity 36    
Precipitation  
Precipitation 0.00 in - - ()
Sea Level Pressure  
Sea Level Pressure 29.86 in    
Wind  
Wind Speed 3 mph ()    
Max Wind Speed 8 mph    
Max Gust Speed -    
Visibility 10.0 miles    
Events      
Averages and records for this station are not official NWS values.
T = Trace of Precipitation, MM = Missing Value Source: Averaged Metar Reports

Daily Weather History Graph

Daily Weather History Graph

Search for Another Location

Airport or City:

Astronomy

Nov. 19, 2019 Rise Set
Actual Time 7:26 AM CST 5:08 PM CST
Civil Twilight 6:55 AM CST 5:38 PM CST
Nautical Twilight 6:22 AM CST 6:12 PM CST
Astronomical Twilight 5:49 AM CST 6:45 PM CST
Moon No Moon Rise 1:36 PM CST (11/19)
Length of Visible Light 10h 42m
Length of Day
9h 42m
Waning Gibbous, 51% of the Moon is Illuminated
Nov 19
Waning Gibbous
Nov 19
Last Quarter
Nov 26
New
Dec 4
First Quarter
Dec 11
Full

Hourly Weather History & Observations

Time (CST) Temp. Windchill Dew Point Humidity Pressure Visibility Wind Dir Wind Speed Gust Speed Precip Events Conditions
12:15 AM 34.9 °F - 32.7 °F 92% 29.83 in 10.0 mi Calm Calm - N/A   Clear
12:35 AM 31.8 °F - 30.9 °F 96% 29.84 in 10.0 mi Calm Calm - N/A   Clear
12:55 AM 32.5 °F 29.3 °F 31.3 °F 95% 29.84 in 10.0 mi NNW 3.5 mph - N/A   Clear
1:35 AM 31.5 °F 24.9 °F 30.0 °F 94% 29.84 in 10.0 mi NNW 6.9 mph - N/A   Clear
1:55 AM 35.2 °F 29.5 °F 32.2 °F 89% 29.84 in 10.0 mi NNW 6.9 mph - N/A   Clear
2:15 AM 34.7 °F 28.8 °F 32.2 °F 91% 29.84 in 10.0 mi NNW 6.9 mph - N/A   Clear
2:35 AM 36.0 °F 32.1 °F 32.7 °F 88% 29.84 in 10.0 mi NNW 4.6 mph - N/A   Clear
2:55 AM 31.8 °F 28.5 °F 30.0 °F 93% 29.85 in 10.0 mi WNW 3.5 mph - N/A   Clear
3:35 AM 32.5 °F 28.1 °F 30.2 °F 91% 29.86 in 10.0 mi NW 4.6 mph - N/A   Clear
3:55 AM 29.3 °F 25.6 °F 28.2 °F 96% 29.86 in 10.0 mi NNW 3.5 mph - N/A   Clear
4:15 AM 28.8 °F 25.0 °F 26.4 °F 91% 29.86 in 10.0 mi NW 3.5 mph - N/A   Clear
4:55 AM 29.7 °F 26.1 °F 28.4 °F 95% 29.86 in 10.0 mi WNW 3.5 mph - N/A   Clear
5:15 AM 29.1 °F 24.1 °F 28.0 °F 96% 29.86 in 10.0 mi NNW 4.6 mph - N/A   Clear
5:35 AM 27.0 °F 23.0 °F 25.5 °F 94% 29.86 in 10.0 mi WNW 3.5 mph - N/A   Clear
5:55 AM 27.0 °F 23.0 °F 25.7 °F 95% 29.87 in 10.0 mi WNW 3.5 mph - N/A   Clear
6:15 AM 27.9 °F - 26.6 °F 95% 29.88 in 10.0 mi Calm Calm - N/A   Clear
6:35 AM 28.4 °F 24.6 °F 27.3 °F 96% 29.88 in 10.0 mi NNW 3.5 mph - N/A   Clear
6:55 AM 25.9 °F - 24.4 °F 94% 29.89 in 10.0 mi Calm Calm - N/A   Clear
7:15 AM 27.3 °F - 26.2 °F 96% 29.90 in 10.0 mi Calm Calm - N/A   Clear
7:35 AM 26.6 °F - 25.0 °F 94% 29.89 in 10.0 mi Calm Calm - N/A   Clear
7:55 AM 27.3 °F - 25.5 °F 93% 29.89 in 10.0 mi Calm Calm - N/A   Clear
8:15 AM 28.4 °F - 26.6 °F 93% 29.90 in 10.0 mi Calm Calm - N/A   Clear
8:55 AM 32.7 °F - 31.3 °F 94% 29.90 in 10.0 mi Calm Calm - N/A   Clear
9:15 AM 36.1 °F - 33.8 °F 91% 29.91 in 10.0 mi Calm Calm - N/A   Clear
9:35 AM 40.1 °F 36.9 °F 34.3 °F 80% 29.91 in 10.0 mi NW 4.6 mph - N/A   Clear
9:55 AM 43.0 °F 38.8 °F 34.0 °F 71% 29.91 in 10.0 mi NW 6.9 mph - N/A   Clear
10:15 AM 44.4 °F 42.0 °F 34.2 °F 67% 29.92 in 10.0 mi WNW 4.6 mph - N/A   Clear
10:35 AM 46.4 °F - 35.1 °F 65% 29.91 in 10.0 mi Calm Calm - N/A   Clear
10:55 AM 47.7 °F - 35.2 °F 62% 29.91 in 10.0 mi Calm Calm - N/A   Clear
11:15 AM 50.2 °F - 35.8 °F 58% 29.91 in 10.0 mi Calm Calm - N/A   Clear
11:35 AM 51.6 °F - 36.3 °F 56% 29.90 in 10.0 mi South 3.5 mph - N/A   Clear
11:55 AM 52.7 °F - 35.8 °F 53% 29.89 in 10.0 mi Calm Calm - N/A   Clear
12:15 PM 53.8 °F - 35.6 °F 50% 29.88 in 10.0 mi South 3.5 mph - N/A   Clear
12:35 PM 55.2 °F - 35.6 °F 48% 29.88 in 10.0 mi South 3.5 mph - N/A   Clear
12:55 PM 56.3 °F - 35.6 °F 46% 29.86 in 10.0 mi Calm Calm - N/A   Clear
1:15 PM 56.3 °F - 34.7 °F 44% 29.86 in 10.0 mi Calm Calm - N/A   Scattered Clouds
1:55 PM 57.7 °F - 35.4 °F 43% 29.85 in 10.0 mi South 3.5 mph - N/A   Overcast
2:15 PM 58.3 °F - 35.4 °F 42% 29.84 in 10.0 mi Calm Calm - N/A   Overcast
2:35 PM 59.4 °F - 34.7 °F 40% 29.83 in 10.0 mi SE 5.8 mph - N/A   Overcast
2:55 PM 61.2 °F - 34.9 °F 37% 29.83 in 10.0 mi SE 6.9 mph - N/A   Overcast
3:15 PM 60.8 °F - 33.3 °F 36% 29.82 in 10.0 mi SE 6.9 mph - N/A   Overcast
3:55 PM 60.4 °F - 33.8 °F 37% 29.82 in 10.0 mi SE 6.9 mph - N/A   Scattered Clouds
4:15 PM 58.1 °F - 32.9 °F 39% 29.82 in 10.0 mi ESE 4.6 mph - N/A   Clear
4:35 PM 56.3 °F - 33.1 °F 41% 29.82 in 10.0 mi East 5.8 mph - N/A   Clear
4:55 PM 52.3 °F - 32.4 °F 47% 29.82 in 10.0 mi East 6.9 mph - N/A   Clear
5:15 PM 50.0 °F - 32.2 °F 50% 29.82 in 10.0 mi East 6.9 mph - N/A   Clear
5:35 PM 48.2 °F - 32.0 °F 54% 29.82 in 10.0 mi East 5.8 mph - N/A   Clear
5:55 PM 46.9 °F - 32.2 °F 57% 29.82 in 10.0 mi East 6.9 mph - N/A   Clear
6:15 PM 47.3 °F - 32.4 °F 56% 29.83 in 10.0 mi ESE 5.8 mph - N/A   Clear
6:35 PM 45.7 °F - 32.0 °F 59% 29.84 in 10.0 mi Calm Calm - N/A   Clear
6:55 PM 45.5 °F 44.2 °F 32.0 °F 59% 29.84 in 10.0 mi ESE 3.5 mph - N/A   Clear
7:15 PM 44.6 °F 43.1 °F 32.2 °F 62% 29.85 in 10.0 mi SE 3.5 mph - N/A   Clear
7:35 PM 42.3 °F 39.4 °F 31.1 °F 65% 29.85 in 10.0 mi SE 4.6 mph - N/A   Clear
7:55 PM 42.4 °F 38.8 °F 32.4 °F 68% 29.85 in 10.0 mi ESE 5.8 mph - N/A   Clear
8:15 PM 43.2 °F 39.7 °F 32.4 °F 66% 29.85 in 10.0 mi ESE 5.8 mph - N/A   Clear
8:35 PM 41.4 °F 38.4 °F 32.0 °F 69% 29.85 in 10.0 mi SE 4.6 mph - N/A   Clear
8:55 PM 40.5 °F 35.8 °F 32.2 °F 72% 29.85 in 10.0 mi SE 6.9 mph - N/A   Clear
9:15 PM 39.2 °F - 32.0 °F 75% 29.85 in 10.0 mi Calm Calm - N/A   Clear
9:35 PM 39.4 °F - 31.8 °F 74% 29.85 in 10.0 mi Calm Calm - N/A   Clear
9:55 PM 38.8 °F - 31.6 °F 75% 29.85 in 10.0 mi Calm Calm - N/A   Clear
10:15 PM 40.1 °F 36.1 °F 32.4 °F 74% 29.84 in 10.0 mi SE 5.8 mph - N/A   Clear
10:35 PM 40.1 °F 36.9 °F 32.2 °F 73% 29.85 in 10.0 mi SE 4.6 mph - N/A   Clear
10:55 PM 39.7 °F 35.6 °F 32.5 °F 75% 29.84 in 10.0 mi SE 5.8 mph - N/A   Clear
11:15 PM 41.4 °F 37.6 °F 32.9 °F 72% 29.84 in 10.0 mi SE 5.8 mph - N/A   Clear
11:35 PM 43.0 °F 38.2 °F 33.8 °F 70% 29.83 in 10.0 mi ESE 8.1 mph - N/A   Clear
11:55 PM 43.0 °F 38.8 °F 33.1 °F 68% 29.83 in 10.0 mi SE 6.9 mph - N/A   Clear